Location: Newark
(46.1292°N, 1.0086°W)
Time: 20:27:42
(UTC+00:00)

Altair - Visible Passes

Search period start: 19 November 2019 00:00
Search period end: 29 November 2019 00:00
Orbit: 1502 x 1682 km, 47.2° (Epoch: 17 November)

Date Brightness Start Highest point End Pass type
(mag) Time Alt. Az. Time Alt. Az. Time Alt. Az.
19 Nov 8.9 02:10:24 26° E 02:10:24 26° E 02:14:37 10° ENE visible
19 Nov 7.3 04:08:26 60° SW 04:10:21 79° SSE 04:19:38 10° ENE visible
19 Nov 7.5 06:06:28 12° W 06:15:12 84° N 06:24:40 10° E visible
20 Nov 9.2 01:46:47 19° E 01:46:47 19° E 01:49:22 10° ENE visible
20 Nov 7.3 03:44:48 75° S 03:45:12 77° SSE 03:54:27 10° ENE visible
20 Nov 7.5 05:42:50 19° W 05:50:01 84° N 05:59:27 10° E visible
21 Nov 9.5 01:23:07 13° E 01:23:07 13° E 01:24:07 10° ENE visible
21 Nov 7.5 03:21:09 67° ESE 03:21:09 67° ESE 03:29:16 10° ENE visible
21 Nov 7.4 05:19:10 27° W 05:24:50 84° N 05:34:14 10° E visible
22 Nov 7.9 02:57:28 51° E 02:57:28 51° E 03:04:06 10° ENE visible
22 Nov 7.4 04:55:29 38° W 04:59:38 84° N 05:09:01 10° E visible
23 Nov 8.4 02:33:46 38° E 02:33:46 38° E 02:38:55 10° ENE visible
23 Nov 7.3 04:31:47 53° W 04:34:28 84° N 04:43:49 10° E visible
23 Nov 7.6 06:30:07 10° WNW 06:39:20 81° SSW 06:48:46 10° ESE visible
24 Nov 8.8 02:10:01 28° E 02:10:01 28° E 02:13:46 10° ENE visible
24 Nov 7.2 04:08:03 71° W 04:09:17 85° N 04:18:37 10° E visible
24 Nov 7.5 06:06:04 15° WNW 06:14:10 83° SSW 06:23:36 10° ESE visible
25 Nov 9.2 01:46:17 20° ENE 01:46:17 20° ENE 01:48:35 10° ENE visible
25 Nov 7.3 03:44:19 85° NNE 03:44:19 85° NNE 03:53:25 10° E visible
25 Nov 7.4 05:42:20 21° WNW 05:49:01 85° SSW 05:58:25 10° ESE visible
26 Nov 9.5 01:22:33 13° ENE 01:22:33 13° ENE 01:23:25 10° ENE visible
26 Nov 7.6 03:20:34 66° ENE 03:20:34 66° ENE 03:28:14 10° E visible
26 Nov 7.4 05:18:35 30° WNW 05:23:52 88° SSW 05:33:14 10° ESE visible
27 Nov 8.0 02:56:50 49° ENE 02:56:50 49° ENE 03:03:02 10° E visible
27 Nov 7.3 04:54:51 41° WNW 04:58:42 89° S 05:08:03 10° ESE visible
28 Nov 8.5 02:33:05 36° ENE 02:33:05 36° ENE 02:37:52 10° E visible
28 Nov 7.3 04:31:07 56° WNW 04:33:32 89° N 04:42:52 10° ESE visible
28 Nov 7.8 06:29:08 10° WNW 06:37:52 53° SW 06:46:52 10° SE visible
